Location: ??????
(30.7766°N, 60.5029°E)
Time: 21:16:58
(UTC+00:00)

Daily predictions for brighter satellites

Satellite Brightness Start Highest point End
(mag) Time Altitude Azimuth Time Altitude Azimuth Time Altitude Azimuth
Milstar 3 3.1 13:30:00 10° WSW 13:37:25 59° SSE 13:44:02 10° E
Aureole 3 Rocket 4.0 13:38:18 10° SE 13:40:41 19° E 13:43:27 10° NE
Cosmos 1300 3.2 13:37:37 10° SSE 13:41:09 38° E 13:44:42 10° NNE
Helios 1A Rocket 4.3 13:42:32 10° ESE 13:45:30 19° ENE 13:48:28 10° NNE
NOAA 12 4.3 13:41:30 10° S 13:46:46 83° WSW 13:52:05 10° NNW
FALCON 9 DEB 3.7 13:44:37 10° WSW 13:47:46 52° NW 13:50:54 10° NNE
COSMOS 2487 2.8 13:44:32 10° N 13:47:46 39° ENE 13:50:59 10° SE
Cosmos 2297 Rocket 4.0 13:49:11 10° NE 13:50:28 11° NE 13:51:46 10° ENE
Cosmos 1850 Rocket 4.0 13:46:27 10° N 13:51:44 65° ENE 13:57:00 10° SSE
Cosmos 1939 Rocket 3.4 13:50:23 10° SE 13:54:05 36° ENE 13:57:44 10° N
USA 281 3.5 13:47:51 10° SSE 13:54:23 77° WSW 14:00:58 10° NNW
H-2A R/B 3.7 13:51:51 10° E 13:54:35 14° ENE 13:57:19 10° NE
Okean O Rocket 2.7 13:53:28 10° S 13:57:43 50° W 14:01:58 10° NNW
IRS-1C Rocket 4.3 13:53:45 10° SE 13:58:46 47° ENE 14:03:48 10° N
PSLV R/B 3.9 13:57:46 10° NNE 14:01:57 73° ESE 14:06:02 10° S
COSMO-SKYMED 1 2.6 13:59:18 10° N 14:03:39 87° W 14:07:59 10° SSW
MOS 1 Rocket 4.3 14:01:46 10° NE 14:05:47 27° E 14:10:00 10° SSE
USA 276 2.0 14:04:12 10° NW 14:07:22 79° NE 14:10:21 11° SE
OAO 1 Rocket 4.5 14:03:41 10° WSW 14:09:01 75° SSE 14:13:04 18° ENE
CZ-4 R/B 2.1 14:08:05 10° SE 14:11:33 30° ENE 14:14:57 10° NNE
Meteor 2-21 Rocket 4.4 14:06:10 10° N 14:12:20 69° E 14:18:23 10° SSE
YAOGAN 1 3.4 14:09:23 10° SE 14:13:04 28° ENE 14:16:44 10° NNE
Cosmos 2219 4.4 14:11:50 10° NNE 14:16:01 20° ENE 14:17:20 19° E
Cosmos 1689 Rocket 3.3 14:13:44 10° N 14:16:28 41° WNW 14:19:12 10° SSW
Atlas Centaur 2 3.4 14:09:19 10° SW 14:17:33 55° SSE 14:23:28 20° E
Cosmos 1825 Rocket 3.7 14:14:02 10° N 14:18:28 80° W 14:22:51 10° S
Cosmos 1340 3.6 14:18:12 10° NNE 14:21:13 26° ENE 14:21:13 26° ENE
Cosmos 44 4.5 14:19:43 10° SW 14:23:48 38° WNW 14:28:06 10° N
ASTRO E2 3.3 14:20:04 10° SW 14:23:50 43° SSE 14:25:27 27° ESE
Longmarch 3A Rocket 3.4 14:23:31 10° SW 14:25:17 19° S 14:28:28 11° SE
Okean-O 2.7 14:21:08 10° SSE 14:25:26 53° ENE 14:29:46 10° N
Geosat 4.2 14:21:05 10° NNE 14:26:06 75° WNW 14:31:06 10° SSW
BREEZE-M DEB (TANK) 3.8 14:21:43 10° SSW 14:26:26 25° SSE 14:27:01 23° SE
Cosmos 1400 Rocket 2.9 14:22:43 10° S 14:26:50 86° WNW 14:30:58 10° N
Cosmos 2369 4.4 14:24:35 10° SSE 14:29:30 31° ESE 14:31:24 25° ENE
Cosmos 1455 4.2 14:28:22 10° SSE 14:29:05 14° SE 14:29:05 14° SE
Aureole 3 3.4 14:28:05 10° SSW 14:31:51 62° W 14:35:02 10° N
Delta 2 Rocket 4.4 14:29:22 10° WNW 14:34:40 52° N 14:37:16 29° ENE
NOSS 3-3 (A) 3.9 14:29:44 10° S 14:35:06 53° ESE 14:39:01 20° NE
NOSS 3-3 (C) 3.9 14:29:47 10° S 14:35:13 53° ESE 14:39:09 20° NE
ASC 2 Rocket 4.3 14:34:03 10° WSW 14:38:22 41° S 14:41:11 25° SE
CZ-2C R/B 3.3 14:35:20 10° SSE 14:41:03 62° ENE 14:46:44 10° N
Cosmos 1244 Rocket 4.4 14:35:37 10° N 14:41:51 85° E 14:48:07 10° S
Meteor 2-15 4.3 14:36:54 10° S 14:42:59 69° E 14:49:05 10° NNE
ARGOS 4.0 14:46:06 30° NE 14:46:06 30° NE 14:49:56 10° N
OAO 3 Rocket 3.4 14:41:23 10° WNW 14:46:04 55° N 14:47:13 43° ENE
NOAA 15 4.5 14:43:28 10° SSE 14:48:44 78° ENE 14:54:03 10° N
Meteor 2-10 Rocket 3.5 14:43:22 10° S 14:48:50 71° E 14:54:05 10° NNE
SeaSat 1 3.9 14:55:17 22° NNE 14:55:17 22° NNE 14:57:36 10° N
Cosmos 1315 Rocket 4.0 14:50:07 10° S 14:52:03 27° SSE 14:52:03 27° SSE
Cosmos 2227 Rocket 3.1 14:49:36 10° N 14:53:23 29° NE 14:53:23 29° NE
Cosmos 1656 4.2 14:50:15 10° SSW 14:55:40 59° WNW 15:01:11 10° NNE
GPS 2-04 Rocket1 3.7 14:52:37 10° SW 14:55:57 36° SSE 14:55:57 36° SSE
CSL-04 Rocket 3.7 14:52:38 12° SSE 14:57:44 61° ENE 15:03:11 10° N
CZ-2C R/B 4.4 15:02:40 17° SSE 15:02:40 17° SSE 15:03:56 10° SSE
Delta 142 4.2 14:54:04 10° W 14:59:11 71° S 15:00:57 47° ESE
Cosmos 1697 Rocket 2.5 15:01:09 10° SSW 15:06:44 84° ESE 15:09:11 35° NNE
Cosmos 883 Rocket 4.4 15:02:21 10° S 15:08:25 59° E 15:14:26 10° NNE
OAO 2 Rocket 3.2 15:03:29 10° W 15:08:25 73° NNW 15:08:44 70° NNE
Hubble Space Telescope 2.6 15:05:28 10° WSW 15:08:39 22° SSW 15:09:09 21° S
S3M 4.0 15:03:16 10° S 15:09:21 79° W 15:15:29 10° N
GEOS 3 Rocket 3.8 15:14:28 56° NNE 15:14:28 56° NNE 15:19:10 10° NNW
Timation 2 Rocket 4.2 15:11:46 10° NNW 15:18:28 77° WSW 15:24:14 15° SSE
Cosmos 1980 Rocket 3.5 15:22:21 10° S 15:24:46 26° S 15:24:46 26° S
Cosmos 2360 4.3 15:27:19 10° SSW 15:33:00 75° WNW 15:33:00 75° WNW
H-2A R/B 2.6 15:30:28 26° S 15:33:22 59° W 15:38:43 10° NNW
Cosmos 2297 Rocket 2.5 15:29:29 10° NNW 15:34:00 58° NNW 15:34:00 58° NNW
CZ-4 R/B 4.4 15:44:34 10° SW 15:46:34 13° W 15:48:32 10° WNW
Cosmos 2219 4.3 15:54:53 10° NW 15:59:21 41° WNW 15:59:21 41° WNW
Atlas Centaur 2 3.2 15:58:48 10° W 16:06:03 66° WSW 16:06:03 66° WSW
Milstar 3 3.6 16:13:54 10° W 16:18:20 46° WSW 16:18:20 46° WSW
CENTAUR R/B 4.3 23:00:12 24° NE 23:00:12 24° NE 23:02:48 10° NE
Centaur D-1AR AC-48 4.0 23:07:12 34° SE 23:07:12 34° SE 23:16:37 10° E
ATLAS 3B R/B 4.1 23:35:51 10° S 23:41:35 33° ESE 23:47:19 10° NE
COSMOS 2406 3.8 23:44:38 45° SE 23:45:46 53° ESE 23:51:16 10° NNE
Lacrosse 5 rocket 3.6 23:53:42 17° NE 23:53:42 17° NE 23:54:43 10° NE
CZ-2C R/B 3.8 23:54:25 15° E 23:54:25 15° E 23:55:02 10° E
